Roda de Ter - l'Esquerda





Hora UTC 20:10
Temperatura 1.2 ºC
Humitat 89.0 %
Pressió 1002.4 hPa
Pluja 0.0 mm
Velocitat vent 1.6 km/h
Direcció vent E

Dades diàries 2021-11-27



Hora UTC (hivern +1h; estiu +2h)
Temperatura (ºC) Humitat (%) Pressió (hPa) Velocitat vent (km/h) Precipitació (mm)
Hora UTC Aire Humitat Pressió Vel. Dir. Vel. Max Dir. Intent. màx 5 min.
00:05 3.8 90.0 1004.2 0.0 S 0.0 0.0
00:10 3.8 90.0 1004.1 0.0 S 3.2 0.0
00:15 3.8 90.0 1004.2 1.6 S 1.6 0.0
00:20 3.8 90.0 1003.9 0.0 S 3.2 0.0
00:25 3.8 90.0 1003.8 3.2 S 4.8 0.0
00:30 3.8 90.0 1003.9 0.0 S 4.8 0.0
00:35 3.8 90.0 1003.8 1.6 S 3.2 0.0
00:40 3.8 90.0 1003.8 0.0 S 3.2 0.0
00:45 3.8 90.0 1003.8 0.0 S 1.6 0.0
00:50 3.7 90.0 1003.9 3.2 S 4.8 0.0
00:55 3.7 90.0 1003.7 1.6 S 4.8 0.0
01:00 3.6 90.0 1003.5 0.0 S 4.8 0.0
01:05 3.6 90.0 1003.5 0.0 S 1.6 0.0
01:10 3.4 90.0 1003.6 0.0 S 1.6 0.0
01:15 3.4 90.0 1003.5 0.0 S 0.0 0.0
01:20 3.3 90.0 1003.4 1.6 SSW 6.4 0.0
01:25 3.1 90.0 1003.3 4.8 WSW 6.4 0.0
01:30 3.0 90.0 1003.3 1.6 WSW 6.4 0.0
01:35 2.9 90.0 1003.3 3.2 WSW 6.4 0.0
01:40 2.7 90.0 1003.2 0.0 WSW 6.4 0.0
01:45 2.6 90.0 1003.2 0.0 WSW 3.2 0.0
01:45 2.6 90.0 1003.2 1.6 WSW 3.2 0.0
01:55 2.5 90.0 1003.1 3.2 WSW 4.8 0.0
02:00 2.4 90.0 1003.0 1.6 WSW 4.8 0.0
02:05 2.4 90.0 1003.0 1.6 WSW 8.0 0.0
02:10 2.4 90.0 1003.0 1.6 SW 8.0 0.0
02:15 2.3 90.0 1003.0 3.2 SW 4.8 0.0
02:20 2.2 90.0 1002.9 0.0 SW 3.2 0.0
02:25 2.0 90.0 1002.8 1.6 SW 3.2 0.0
02:30 1.9 90.0 1002.7 1.6 WSW 6.4 0.0
02:35 2.1 90.0 1002.7 0.0 WSW 6.4 0.0
02:40 2.2 90.0 1002.8 3.2 WSW 4.8 0.0
02:45 2.3 90.0 1002.7 4.8 SW 6.4 0.0
02:50 2.4 90.0 1002.6 4.8 WSW 9.7 0.0
02:50 2.4 90.0 1002.4 3.2 W 9.7 0.0
02:55 2.3 89.0 1002.3 3.2 WSW 8.0 0.0
03:00 2.2 89.0 1002.2 6.4 WSW 8.0 0.0
03:05 2.1 89.0 1002.2 4.8 WSW 11.3 0.0
03:10 2.1 89.0 1002.0 1.6 WSW 11.3 0.0
03:15 2.1 89.0 1002.0 4.8 WSW 11.3 0.0
03:20 2.1 89.0 1001.9 1.6 WSW 11.3 0.0
03:25 2.0 89.0 1001.8 6.4 SW 11.3 0.0
03:30 1.9 89.0 1001.8 4.8 WSW 9.7 0.0
03:35 1.9 89.0 1001.8 6.4 W 14.5 0.0
03:40 2.0 89.0 1001.5 4.8 WNW 16.1 0.0
03:45 2.0 89.0 1001.6 6.4 W 16.1 0.0
03:50 2.1 88.0 1001.7 4.8 WSW 16.1 0.0
03:55 2.1 88.0 1001.7 11.3 W 16.1 0.0
04:05 2.1 88.0 1001.7 6.4 W 16.1 0.0
04:10 2.1 88.0 1001.7 6.4 W 16.1 0.0
04:15 2.1 88.0 1001.7 3.2 W 14.5 0.0
04:20 2.1 88.0 1001.6 3.2 WNW 14.5 0.0
04:25 2.2 88.0 1001.5 3.2 W 8.0 0.0
04:30 2.2 88.0 1001.3 1.6 W 6.4 0.0
04:35 2.2 88.0 1001.3 1.6 WNW 8.0 0.0
04:40 2.2 87.0 1001.1 4.8 NW 8.0 0.0
04:45 2.2 87.0 1001.2 3.2 WNW 6.4 0.0
04:50 2.2 87.0 1001.0 3.2 W 6.4 0.0
04:55 2.2 87.0 1001.0 3.2 W 4.8 0.0
05:00 2.3 87.0 1000.8 3.2 W 4.8 0.0
05:05 2.3 87.0 1000.8 0.0 W 4.8 0.0
05:10 2.3 87.0 1000.9 1.6 WSW 4.8 0.0
05:15 2.4 87.0 1000.8 1.6 WSW 4.8 0.0
05:20 2.4 87.0 1000.9 0.0 WSW 3.2 0.0
05:25 2.4 87.0 1000.7 1.6 WSW 3.2 0.0
05:30 2.4 87.0 1000.7 0.0 WSW 1.6 0.0
05:35 2.4 87.0 1000.5 0.0 WSW 1.6 0.0
05:40 2.4 87.0 1000.5 0.0 WSW 0.0 0.0
05:45 2.4 87.0 1000.6 0.0 WSW 0.0 0.0
05:50 2.4 87.0 1000.6 1.6 WSW 1.6 0.0
05:55 2.4 87.0 1000.8 0.0 WSW 1.6 0.0
06:00 2.4 87.0 1000.8 0.0 WSW 1.6 0.0
06:00 2.4 87.0 1000.7 1.6 W 3.2 0.0
06:10 2.4 87.0 1000.7 0.0 W 3.2 0.0
06:15 2.6 88.0 1000.7 0.0 W 1.6 0.0
06:20 2.6 87.0 1000.7 0.0 W 3.2 0.0
06:25 2.6 87.0 1000.6 0.0 W 3.2 0.0
06:30 2.6 88.0 1000.4 0.0 W 1.6 0.0
06:35 2.7 88.0 1000.4 1.6 W 3.2 0.0
06:40 2.6 88.0 1000.2 1.6 WSW 3.2 0.0
06:45 2.6 88.0 1000.2 0.0 WSW 3.2 0.0
06:50 2.4 88.0 1000.3 1.6 WSW 3.2 0.0
06:55 2.4 88.0 1000.2 0.0 WSW 3.2 0.0
07:00 2.5 88.0 1000.2 0.0 WSW 1.6 0.0
07:05 2.6 88.0 1000.3 0.0 WSW 1.6 0.0
07:10 2.6 88.0 1000.3 0.0 WSW 0.0 0.0
07:15 2.6 88.0 1000.3 0.0 WSW 1.6 0.0
07:20 2.6 88.0 1000.3 0.0 WSW 1.6 0.0
07:25 2.6 88.0 1000.1 0.0 WSW 1.6 0.0
07:30 2.7 88.0 1000.2 0.0 WSW 1.6 0.0
07:35 2.7 88.0 1000.2 0.0 WSW 0.0 0.0
07:40 2.7 88.0 1000.2 0.0 WSW 0.0 0.0
07:45 2.8 88.0 1000.3 1.6 WSW 3.2 0.0
07:50 2.8 87.0 1000.3 1.6 NW 4.8 0.0
07:55 2.8 87.0 1000.4 3.2 NW 4.8 0.0
08:00 2.9 86.0 1000.4 0.0 NW 6.4 0.0
08:05 3.0 86.0 1000.5 0.0 NW 6.4 0.0
08:10 3.1 85.0 1000.4 3.2 NW 4.8 0.0
08:15 3.1 85.0 1000.5 1.6 NNW 6.4 0.0
08:20 3.2 84.0 1000.5 3.2 NNW 6.4 0.0
08:25 3.3 84.0 1000.7 1.6 NW 4.8 0.0
08:30 3.3 83.0 1000.5 3.2 NNW 4.8 0.0
08:35 3.3 83.0 1000.4 0.0 NNW 4.8 0.0
08:40 3.5 84.0 1000.4 1.6 NE 4.8 0.0
08:45 3.6 84.0 1000.2 1.6 ENE 6.4 0.0
08:50 3.6 84.0 1000.3 1.6 ENE 6.4 0.0
08:55 3.5 83.0 1000.2 0.0 NNE 4.8 0.0
09:00 3.6 84.0 1000.1 3.2 NE 4.8 0.0
09:05 3.7 84.0 1000.1 4.8 NE 4.8 0.0
09:10 3.6 83.0 1000.1 0.0 NE 4.8 0.0
09:15 3.7 82.0 1000.0 0.0 NE 3.2 0.0
09:20 3.8 82.0 1000.2 0.0 NE 3.2 0.0
09:25 3.8 82.0 1000.1 1.6 NE 3.2 0.0
09:30 3.9 81.0 1000.2 0.0 NE 3.2 0.0
09:35 4.1 82.0 1000.3 1.6 NE 3.2 0.0
09:40 4.1 81.0 1000.4 1.6 NE 3.2 0.0
09:45 4.2 82.0 1000.3 1.6 ENE 4.8 0.0
09:50 4.3 81.0 1000.5 1.6 ENE 4.8 0.0
09:50 4.4 81.0 1000.5 0.0 ENE 4.8 0.0
10:00 4.4 81.0 1000.6 1.6 ENE 3.2 0.0
10:05 4.4 81.0 1000.7 0.0 ENE 3.2 0.0
10:10 4.4 81.0 1000.5 1.6 ENE 4.8 0.0
10:15 4.6 81.0 1000.5 1.6 ENE 4.8 0.0
10:20 4.6 81.0 1000.5 0.0 ENE 4.8 0.0
10:25 4.9 81.0 1000.4 1.6 ENE 4.8 0.0
10:30 5.1 81.0 1000.4 3.2 ENE 4.8 0.0
10:35 5.1 80.0 1000.4 1.6 ENE 4.8 0.0
10:40 5.3 81.0 1000.3 4.8 ENE 8.0 0.0
10:45 5.4 80.0 1000.2 6.4 NE 9.7 0.0
10:50 5.6 80.0 1000.2 3.2 ENE 9.7 0.0
10:55 5.6 80.0 1000.1 3.2 ENE 8.0 0.0
11:00 5.6 79.0 1000.2 1.6 NE 8.0 0.0
11:05 5.6 79.0 1000.1 1.6 NE 6.4 0.0
11:10 5.8 80.0 1000.0 0.0 NE 6.4 0.0
11:15 5.8 78.0 1000.0 1.6 ENE 6.4 0.0
11:20 5.8 78.0 1000.0 1.6 ENE 6.4 0.0
11:25 5.7 78.0 1000.0 0.0 ENE 4.8 0.0
11:30 5.6 77.0 1000.1 0.0 NNE 8.0 0.0
11:35 5.9 79.0 1000.1 1.6 NE 8.0 0.0
11:40 6.2 79.0 999.9 3.2 NE 6.4 0.0
11:45 6.2 77.0 1000.0 1.6 NE 4.8 0.0
11:50 6.3 77.0 1000.0 1.6 ENE 6.4 0.0
11:55 6.5 78.0 999.9 0.0 ENE 6.4 0.0
12:00 6.7 77.0 1000.0 1.6 ENE 6.4 0.0
12:05 6.9 77.0 1000.0 3.2 E 8.0 0.0
12:10 7.4 76.0 999.9 6.4 ENE 9.7 0.0
12:10 7.3 74.0 999.9 1.6 ENE 8.0 0.0
12:15 7.7 75.0 999.8 1.6 NNE 8.0 0.0
12:20 7.9 73.0 999.8 3.2 NE 9.7 0.0
12:25 7.9 72.0 999.8 1.6 NNW 11.3 0.0
12:30 8.3 74.0 999.7 3.2 NW 11.3 0.0
12:35 8.1 72.0 999.7 0.0 NW 8.0 0.0
12:40 7.6 71.0 999.8 1.6 N 9.7 0.0
12:45 7.6 73.0 999.5 0.0 NNW 9.7 0.0
12:50 7.5 71.0 999.5 1.6 WNW 8.0 0.0
12:55 7.6 72.0 999.5 1.6 NNW 8.0 0.0
13:00 7.6 73.0 999.4 3.2 NE 6.4 0.0
13:05 7.8 74.0 999.3 4.8 ENE 8.0 0.0
13:10 7.9 75.0 999.1 3.2 E 8.0 0.0
13:15 8.1 74.0 998.9 6.4 ENE 9.7 0.0
13:25 8.2 73.0 998.9 4.8 E 9.7 0.0
13:25 8.1 72.0 998.9 3.2 E 12.9 0.0
13:35 8.1 72.0 998.7 4.8 E 12.9 0.0
13:40 8.2 69.0 998.7 3.2 E 16.1 0.0
13:45 8.5 70.0 998.6 1.6 ESE 16.1 0.0
13:50 9.4 68.0 998.7 1.6 SW 11.3 0.0
13:55 9.7 67.0 998.6 6.4 SE 12.9 0.0
14:00 9.7 66.0 998.5 8.0 S 12.9 0.0
14:05 10.3 64.0 998.4 8.0 SSE 9.7 0.0
14:10 10.3 63.0 998.2 1.6 SE 9.7 0.0
14:15 10.3 59.0 998.3 6.4 ESE 12.9 0.0
14:20 10.3 62.0 998.4 9.7 E 14.5 0.0
14:25 10.2 63.0 998.7 0.0 ESE 12.9 0.0
14:30 10.4 61.0 999.0 3.2 S 11.3 0.0
14:35 10.1 62.0 999.1 3.2 WSW 9.7 0.0
14:40 9.7 68.0 999.1 12.9 WSW 16.1 0.0
14:45 9.1 68.0 999.1 4.8 SW 16.1 0.0
14:50 8.5 69.0 999.2 8.0 WSW 16.1 0.0
14:55 8.1 70.0 999.4 6.4 WSW 14.5 0.0
15:00 7.8 71.0 999.4 3.2 SW 12.9 0.0
15:05 7.7 73.0 999.5 8.0 SW 11.3 0.0
15:10 7.6 73.0 999.6 4.8 WSW 12.9 0.0
15:15 7.4 73.0 999.6 6.4 W 12.9 0.0
15:20 7.3 74.0 999.8 4.8 SW 12.9 0.0
15:25 7.1 74.0 1000.0 3.2 SW 12.9 0.0
15:30 6.9 75.0 999.9 1.6 SW 8.0 0.0
15:35 6.8 75.0 999.9 3.2 SW 8.0 0.0
15:40 6.7 75.0 999.9 0.0 SW 6.4 0.0
15:45 6.6 76.0 999.9 1.6 SW 4.8 0.0
15:50 6.4 76.0 999.9 3.2 SSW 4.8 0.0
15:55 6.4 76.0 999.9 6.4 SSE 8.0 0.0
16:00 6.4 76.0 999.9 4.8 SSE 8.0 0.0
16:05 6.4 76.0 1000.1 3.2 SSE 9.7 0.0
16:10 6.3 77.0 1000.1 8.0 SSE 11.3 0.0
16:15 6.2 77.0 1000.0 4.8 SE 9.7 0.0
16:20 6.2 77.0 1000.1 9.7 SE 12.9 0.0
16:25 6.2 77.0 1000.1 9.7 S 12.9 0.0
16:30 6.2 76.0 1000.2 3.2 SSE 11.3 0.0
16:35 6.2 76.0 1000.2 3.2 S 8.0 0.0
16:40 6.1 76.0 1000.3 3.2 SSE 9.7 0.0
16:45 5.9 77.0 1000.4 8.0 SSE 8.0 0.0
16:50 5.8 77.0 1000.6 3.2 SE 8.0 0.0
16:55 5.8 78.0 1000.6 3.2 SSE 9.7 0.0
17:00 5.7 78.0 1000.6 0.0 S 9.7 0.0
17:05 5.6 79.0 1000.8 1.6 S 3.2 0.0
17:10 5.4 80.0 1000.9 3.2 NW 4.8 0.0
17:15 5.3 80.0 1000.9 0.0 NW 3.2 0.0
17:20 5.3 80.0 1001.0 0.0 NW 1.6 0.0
17:25 5.2 80.0 1001.0 0.0 NW 3.2 0.0
17:30 5.1 80.0 1000.9 1.6 NW 3.2 0.0
17:35 4.8 81.0 1001.0 1.6 NNE 4.8 0.0
17:40 4.5 82.0 1001.1 1.6 NNE 4.8 0.0
17:45 4.3 83.0 1001.2 3.2 NNE 4.8 0.0
17:50 4.1 84.0 1001.2 4.8 NNE 4.8 0.0
17:55 3.9 84.0 1001.2 3.2 NNE 6.4 0.0
18:00 3.6 84.0 1001.2 0.0 NNE 4.8 0.0
18:05 3.6 85.0 1001.4 3.2 NNE 3.2 0.0
18:10 3.7 85.0 1001.4 4.8 NNE 6.4 0.0
18:15 3.6 86.0 1001.5 3.2 NNE 6.4 0.0
18:20 3.5 86.0 1001.6 1.6 NNE 4.8 0.0
18:25 3.3 86.0 1001.6 1.6 NNE 4.8 0.0
18:30 3.1 86.0 1001.7 3.2 NNE 4.8 0.0
18:35 2.9 86.0 1001.8 3.2 NE 4.8 0.0
18:40 2.8 87.0 1001.7 4.8 SE 6.4 0.0
18:45 2.6 86.0 1001.9 4.8 ESE 6.4 0.0
18:50 2.3 87.0 1001.8 4.8 NE 6.4 0.0
18:55 2.2 87.0 1001.8 0.0 NE 6.4 0.0
19:00 2.3 88.0 1001.8 3.2 NE 6.4 0.0
19:05 2.2 88.0 1001.9 3.2 NE 4.8 0.0
19:10 2.0 87.0 1002.0 0.0 NE 4.8 0.0
19:15 1.9 88.0 1001.9 1.6 NE 3.2 0.0
19:20 1.8 88.0 1002.0 4.8 NE 4.8 0.0
19:25 1.6 88.0 1002.2 3.2 NE 6.4 0.0
19:30 1.8 89.0 1002.1 0.0 NE 6.4 0.0
19:30 1.6 88.0 1002.1 0.0 NE 4.8 0.0
19:40 1.5 89.0 1002.2 1.6 E 4.8 0.0
19:45 1.3 88.0 1002.2 1.6 E 4.8 0.0
19:50 1.3 89.0 1002.2 1.6 E 4.8 0.0
19:55 1.2 89.0 1002.2 0.0 E 4.8 0.0
20:00 1.3 89.0 1002.3 1.6 E 3.2 0.0
20:05 1.2 89.0 1002.4 0.0 E 3.2 0.0
20:10 1.2 89.0 1002.4 1.6 E 3.2 0.0
Màxima 10.4 90.0 1004.2 12.9 WSW 16.1 0.0
Mínima 1.2 59.0 998.2
Total 0.0